Location: Seattle
(47.6064°N, 122.3308°W)
Time: 04:38:12
(UTC-08:00)

S-56A Canister/Altair - Pass Details

Date: 27 November 2020
Orbit: 633 x 2499 km, 38.9° (Epoch: 23 January)

Event Time Altitude Azimuth Distance (km) Brightness Sun altitude
Rises 18:05:28 0° 203° (SSW) 5,805 12.5 -16.9°
Reaches altitude 10° 18:10:56 10° 189° (S) 4,511 11.7 -17.8°
Maximum altitude 18:18:31 20° 149° (SSE) 3,277 10.5 -19.1°
Enters shadow 18:22:23 16° 121° (ESE) 3,269 10.3 -19.7°
Drops below altitude 10° 18:24:35 10° 107° (ESE) 3,507 - -20.1°
Sets 18:28:06 0° 91° (E) 4,177 - -20.7°
